Погода в Ике

Перу     14°04′27″S   75°44′18″W
темп.,
°C
ветер,
м/с
пор.,
м/с
влажн.,
%
обл.,
%
осадки,
мм/ч
давл.,
гПа
погр.,
м
19 апреля, пн
пн1901:00+20зюз11695 0.0 101376
04:00+20з117013 0.0 101332
07:00+20зюз016945 0.0 1015116
10:00+25з22520 0.0 1015694
13:00+29зсз53415 0.0 10131357
16:00+27зсз65465 0.0 10121023
19:00+22сз436182 0.0 1014312
22:00+21зюз106772 0.0 1015158
20 апреля, вт
вт2001:00+20юв227049 0.0 1013137
04:00+20ю117362 0.0 101383
07:00+20ююз11715 0.0 1014134
10:00+25юз21535 0.0 1014691
13:00+29з32401 0.0 10121607
16:00+28зсз644443 0.0 10111263
19:00+22зсз32630 0.0 1014385
22:00+21юв11690 0.0 1015180
21 апреля, ср
ср2101:00+20ююз11720 0.0 1013115
04:00+19ю11770 0.0 101295
07:00+19юв11793 0.0 1014163
10:00+23юз21580 0.0 1014671
13:00+28з22425 0.0 10111385
16:00+28зсз64455 0.0 1010986
19:00+22сз33643 0.0 1012286
22:00+21ю117150 0.0 1014178
22 апреля, чт
чт2201:00+20зюз11735 0.0 1013129
04:00+19ю11780 0.0 1012113
07:00+19зюз11774 0.0 1014137
10:00+24зюз215815 0.0 1014710
13:00+28зсз544427 0.0 10111311
16:00+25зсз54515 0.0 1011844
19:00+20зсз33740 0.0 1013230
22:00+19з01797 0.0 1015147
23 апреля, пт
пт2301:00+18ююз0181100 0.0 1014145
04:00+18ю1182100 0.0 1013103
07:00+18ю228190 0.0 1014169
10:00+23ююз2259100 0.0 1014661
13:00+28юз22418 0.0 10111305
16:00+28зсз54400 0.0 10091200
19:00+22з22610 0.0 1012267
22:00+20ю22671 0.0 1013162